Volver al catálogo

FENGYUN 1C DEB

ActivoPO
NORAD 31088·DEBRIS·🇨🇳 China

Lanzado May 10, 1999 desde Taiyuan Satellite Launch Center

Loading…

Próximos Pases (próximas 24 horas)

TLE

ActualizadoSource: Space-Track

Época: Sep 12, 2026, 17:10 UTC

1 31088U 99025BGJ 26255.71576588  .00002286  00000-0  89269-3 0  9997
2 31088  99.3963 342.4981 0026295 355.8144 157.0214 14.30545567  4516

Sigue FENGYUN 1C DEB en tiempo real con AllMySat

Download on the App Store